Regional Weather Roundup
Issued by NWS

Home | Current Version | Previous Version | Graphics & Text | Print | Product List | Glossary On
Versions: 1 2 3 4 5 6 7 8 9 10 11 12 13 14 15 16 17 18 19 20 21 22 23 24 25 26 27 28 29 30 31 32 33 34 35 36 37 38 39 40 41 42 43 44 45 46 47 48 49 50
000
ASUS45 KABQ 061710
RWRNM
WEATHER ROUNDUP FOR NEW MEXICO
NATIONAL WEATHER SERVICE ALBUQUERQUE NM
1100 AM MDT WED MAY 06 2015

NOTE: "FAIR" MEANS FEW OR NO CLOUDS BELOW 12,000 FEET AGL WITH NO
       SIGNIFICANT WEATHER OR OBSTRUCTIONS TO VISION.

      THIS PRODUCT IS RELEASED AS TWO VERSIONS.  ONE VERSION NEAR
      THE TOP OF THE HOUR CONTAINING PRELIMINARY DATA FROM ALBUQUERQUE
      AND OTHER STATIONS.  A FINAL VERSION WITH ADDITIONAL DATA IS
      ISSUED ABOUT 10 MINUTES AFTER THE HOUR.

NMZ501-503-504-510>518-061800-
NORTHWEST PLATEAU/NORTHCENTRAL MOUNTAINS

CITY           SKY/WX    TMP DP  RH WIND       PRES   REMARKS
FARMINGTON     MOSUNNY   60  44  55 W14       29.91S
LOS ALAMOS     PTSUNNY   54  39  56 NW5       29.98S
SANTA FE       CLOUDY    58  42  55 SW14      29.95S
TAOS           PTSUNNY   50  37  62 W10       29.97F
ANGEL FIRE     PTSUNNY   44  39  82 SW14G26   29.94S

$$
NMZ402-403-502-505>509-061800-
WESTCENTRAL MOUNTAINS/SOUTHWEST MOUNTAINS

CITY           SKY/WX    TMP DP  RH WIND       PRES   REMARKS
GALLUP         PTSUNNY   55  43  63 SW9       29.99F
GRANTS         PTSUNNY   59  39  47 NW13      30.01F
SILVER CITY      N/A     64  36  34 SW9G20    30.01F

$$
NMZ407-409-411-412-061800-
SOUTHERN DESERTS

CITY           SKY/WX    TMP DP  RH WIND       PRES   REMARKS
LORDSBURG      FAIR      70  30  23 SW9       29.95S
DEMING         SUNNY     72  36  26 W10G17    29.96F
LAS CRUCES     SUNNY     72  34  25 SW15G21   29.97F
HOLLOMAN AFB   MOSUNNY   73  34  23 W10G17    29.92F
ALAMOGORDO     MOSUNNY   73  32  21 W15       29.95F
T OR C         MOSUNNY   68  37  32 SE7       29.94F

$$
NMZ519>523-061800-
CENTRAL VALLEYS/CENTRAL HIGHLANDS

CITY           SKY/WX    TMP DP  RH WIND       PRES   REMARKS
ALBUQUERQUE    PTSUNNY   63  44  50 SW10      29.95F
DOUBLE EAGLE   PTSUNNY   63  45  51 W10G18    29.96F
MORIARTY ARPT  FAIR      60  41  49 W14G21    29.98S
CLINES CORNERS MOSUNNY   57  41  55 W21G28    29.96R
BELEN          FAIR      64  37  35 W8        29.96F
SOCORRO        FAIR      65  42  44 CALM      29.95F

$$
NMZ524>526-539-540-061800-
SOUTHCENTRAL MOUNTAINS

CITY           SKY/WX    TMP DP  RH WIND       PRES   REMARKS
RUIDOSO        MOSUNNY   61  36  39 SE8       30.03F

$$
NMZ527>531-061800-
NORTHEAST HIGHLANDS/NORTHEAST PLAINS

CITY           SKY/WX    TMP DP  RH WIND       PRES   REMARKS
LAS VEGAS      PTSUNNY   62  37  39 W26G35    29.90S
RATON          MOSUNNY   67  37  33 W15       29.79F
CLAYTON        NOT AVBL

$$
NMZ532>537-061800-
EASTCENTRAL PLAINS

CITY           SKY/WX    TMP DP  RH WIND       PRES   REMARKS
TUCUMCARI      MOSUNNY   72  48  42 W26G37    29.79S
CANNON AFB     MOSUNNY   69  48  46 W20G30    29.88F
CLOVIS AIRPORT SUNNY     70  48  46 SW21G26   29.89R

$$
NMZ028-029-538-061800-
SOUTHEAST PLAINS

CITY           SKY/WX    TMP DP  RH WIND       PRES   REMARKS
ROSWELL        SUNNY     75  45  34 CALM      29.88F
ARTESIA        SUNNY     77  37  24 W7        29.90F
CARLSBAD       SUNNY     79  38  22 W18       29.89S
HOBBS          SUNNY     72  54  53 SW12G17   29.94S


$$



USA.gov is the U.S. government's official web portal to all federal, state and local government web resources and services.